When you browse on this site, cookies collect data to enhance your experience and personalize the content and advertising you see.
Visit our Privacy Policy to learn more. By continuing to use the site, you agree to this use of cookies and data.
  • In Spain
  • List of Countries
  • For 7 days
  • Water Temperature
  • Weather Map
  • Weather Widgets
  • user-avatar
    Login

    Hourly Weather Mbandaka

    Today, 18 February, Tuesday

    Time Temperature Precipitation Wind Pressure Humidity
    00:00 +25°C° 1.2 mm 1 mps 731 mmHg 93%
    01:00 +25°C° 0 mm 3 mps 731 mmHg 93%
    02:00 +25°C° 2.7 mm 2 mps 731 mmHg 93%
    03:00 +25°C° 2.7 mm 2 mps 730 mmHg 93%
    04:00 +24°C° 2.7 mm 1 mps 730 mmHg 94%
    05:00 +24°C° 1.2 mm 1 mps 731 mmHg 93%
    06:00 +25°C° 1.2 mm 1 mps 731 mmHg 92%
    07:00 +25°C° 1.2 mm 1 mps 731 mmHg 91%
    08:00 +26°C° 0.1 mm 1 mps 732 mmHg 87%
    09:00 +27°C° 0.1 mm 1 mps 732 mmHg 82%
    10:00 +28°C° 0.1 mm 1 mps 732 mmHg 77%
    11:00 +30°C° 0.1 mm 1 mps 731 mmHg 72%
    12:00 +31°C° 0.1 mm 1 mps 731 mmHg 66%
    13:00 +32°C° 0.1 mm 1 mps 730 mmHg 61%
    14:00 +32°C° 0.3 mm 1 mps 730 mmHg 61%
    15:00 +32°C° 0.3 mm 1 mps 729 mmHg 61%
    16:00 +32°C° 0.3 mm 1 mps 729 mmHg 61%
    17:00 +30°C° 0.8 mm 2 mps 729 mmHg 71%
    18:00 +27°C° 0.8 mm 2 mps 730 mmHg 82%
    19:00 +25°C° 0.8 mm 3 mps 730 mmHg 92%
    20:00 +25°C° 0 mm 2 mps 731 mmHg 93%
    21:00 +25°C° 0 mm 1 mps 731 mmHg 94%
    22:00 +24°C° 0 mm 1 mps 731 mmHg 96%
    23:00 +24°C° 0 mm 1 mps 731 mmHg 94%

    Tomorrow, 19 February, Wednesday

    Time Temperature Precipitation Wind Pressure Humidity
    00:00 +24°C° 0 mm 1 mps 731 mmHg 93%
    01:00 +24°C° 0 mm 1 mps 731 mmHg 92%
    02:00 +24°C° 0.3 mm 1 mps 730 mmHg 93%
    03:00 +24°C° 0.3 mm 1 mps 730 mmHg 93%
    04:00 +22°C° 0.3 mm 0 mps 730 mmHg 94%
    05:00 +24°C° 0.1 mm 1 mps 730 mmHg 94%
    06:00 +24°C° 0.1 mm 1 mps 730 mmHg 93%
    07:00 +24°C° 0.1 mm 1 mps 731 mmHg 93%
    08:00 +26°C° 0 mm 1 mps 731 mmHg 88%
    09:00 +27°C° 0 mm 1 mps 731 mmHg 83%
    10:00 +28°C° 0 mm 1 mps 731 mmHg 77%
    11:00 +30°C° 0 mm 1 mps 731 mmHg 70%
    12:00 +32°C° 0 mm 1 mps 730 mmHg 63%
    13:00 +33°C° 0 mm 1 mps 730 mmHg 55%
    14:00 +33°C° 0 mm 1 mps 729 mmHg 57%
    15:00 +32°C° 0 mm 1 mps 728 mmHg 58%
    16:00 +32°C° 0 mm 1 mps 728 mmHg 59%
    17:00 +31°C° 0 mm 1 mps 728 mmHg 65%
    18:00 +29°C° 0 mm 1 mps 728 mmHg 71%
    19:00 +28°C° 0 mm 1 mps 729 mmHg 76%
    20:00 +27°C° 0 mm 1 mps 729 mmHg 79%
    21:00 +24°C° 0 mm 0 mps 730 mmHg 81%
    22:00 +24°C° 0 mm 0 mps 730 mmHg 84%
    23:00 +24°C° 0 mm 0 mps 730 mmHg 83%

    Day after tomorrow, 20 February, Thursday

    Time Temperature Precipitation Wind Pressure Humidity
    00:00 +26°C° 0 mm 1 mps 730 mmHg 83%
    01:00 +26°C° 0 mm 1 mps 729 mmHg 82%
    02:00 +25°C° 0 mm 1 mps 729 mmHg 84%
    03:00 +25°C° 0 mm 1 mps 729 mmHg 86%
    04:00 +24°C° 0 mm 1 mps 728 mmHg 87%
    05:00 +25°C° 0 mm 1 mps 729 mmHg 86%
    06:00 +26°C° 0 mm 1 mps 729 mmHg 84%
    07:00 +26°C° 0 mm 2 mps 730 mmHg 83%
    08:00 +28°C° 0 mm 2 mps 730 mmHg 73%
    09:00 +31°C° 0 mm 2 mps 730 mmHg 64%
    10:00 +34°C° 0 mm 2 mps 731 mmHg 55%
    11:00 +34°C° 0 mm 1 mps 730 mmHg 52%
    12:00 +35°C° 0 mm 1 mps 729 mmHg 50%
    13:00 +35°C° 0 mm 1 mps 728 mmHg 47%
    14:00 +35°C° 0 mm 1 mps 728 mmHg 47%
    15:00 +35°C° 0 mm 1 mps 727 mmHg 47%
    16:00 +35°C° 0 mm 1 mps 726 mmHg 46%
    17:00 +33°C° 0.1 mm 1 mps 727 mmHg 53%
    18:00 +32°C° 0.1 mm 1 mps 727 mmHg 60%
    19:00 +30°C° 0.1 mm 1 mps 727 mmHg 67%
    20:00 +29°C° 0.2 mm 1 mps 728 mmHg 73%
    21:00 +28°C° 0.2 mm 1 mps 728 mmHg 79%
    22:00 +27°C° 0.2 mm 1 mps 729 mmHg 85%
    23:00 +26°C° 0.2 mm 1 mps 729 mmHg 88%

    21 February, Friday

    Time Temperature Precipitation Wind Pressure Humidity
    00:00 +26°C° 0.2 mm 1 mps 729 mmHg 91%
    01:00 +25°C° 0.2 mm 1 mps 729 mmHg 94%
    02:00 +23°C° 0.2 mm 0 mps 729 mmHg 94%
    03:00 +23°C° 0.2 mm 0 mps 729 mmHg 94%
    04:00 +23°C° 0.2 mm 0 mps 729 mmHg 94%
    05:00 +23°C° 0 mm 0 mps 729 mmHg 93%
    06:00 +25°C° 0 mm 1 mps 729 mmHg 92%
    07:00 +26°C° 0 mm 1 mps 730 mmHg 92%
    14:00 +36°C° 0 mm 1 mps 728 mmHg 48%
    15:00 +35°C° 0 mm 1 mps 727 mmHg 48%
    16:00 +35°C° 0 mm 1 mps 727 mmHg 48%
    17:00 +33°C° 0.3 mm 1 mps 727 mmHg 57%
    18:00 +31°C° 0.3 mm 1 mps 727 mmHg 65%
    19:00 +29°C° 0.3 mm 1 mps 728 mmHg 74%
    20:00 +28°C° 0.4 mm 1 mps 728 mmHg 78%
    21:00 +27°C° 0.4 mm 1 mps 729 mmHg 82%
    22:00 +26°C° 0.4 mm 1 mps 730 mmHg 86%
    23:00 +26°C° 0.7 mm 1 mps 729 mmHg 88%

    22 February, Saturday

    Time Temperature Precipitation Wind Pressure Humidity
    00:00 +26°C° 0.7 mm 1 mps 729 mmHg 91%
    01:00 +23°C° 0.7 mm 0 mps 729 mmHg 93%
    02:00 +23°C° 0 mm 0 mps 729 mmHg 92%
    03:00 +25°C° 0 mm 1 mps 728 mmHg 92%
    04:00 +26°C° 0 mm 1 mps 728 mmHg 92%
    05:00 +26°C° 0 mm 1 mps 729 mmHg 91%
    06:00 +26°C° 0 mm 1 mps 729 mmHg 90%
    07:00 +26°C° 0 mm 1 mps 729 mmHg 89%
    08:00 +28°C° 0 mm 1 mps 730 mmHg 80%
    09:00 +31°C° 0 mm 1 mps 730 mmHg 70%
    10:00 +33°C° 0 mm 1 mps 731 mmHg 60%
    11:00 +34°C° 0 mm 1 mps 730 mmHg 55%
    12:00 +36°C° 0 mm 1 mps 729 mmHg 50%
    13:00 +37°C° 0 mm 1 mps 728 mmHg 45%
    14:00 +37°C° 0 mm 1 mps 728 mmHg 44%
    15:00 +37°C° 0 mm 1 mps 727 mmHg 43%
    16:00 +36°C° 0 mm 1 mps 727 mmHg 42%
    17:00 +34°C° 0.3 mm 1 mps 727 mmHg 53%
    18:00 +31°C° 0.3 mm 1 mps 727 mmHg 63%
    19:00 +26°C° 0.3 mm 0 mps 727 mmHg 74%
    20:00 +28°C° 0.1 mm 1 mps 728 mmHg 74%
    21:00 +28°C° 0.1 mm 1 mps 728 mmHg 75%
    22:00 +27°C° 0.1 mm 2 mps 729 mmHg 76%
    23:00 +27°C° 0 mm 1 mps 729 mmHg 81%

    23 February, Sunday

    Time Temperature Precipitation Wind Pressure Humidity
    00:00 +26°C° 0 mm 1 mps 729 mmHg 85%
    01:00 +26°C° 0 mm 1 mps 729 mmHg 89%
    02:00 +26°C° 0 mm 1 mps 729 mmHg 91%
    03:00 +26°C° 0 mm 1 mps 728 mmHg 92%
    04:00 +25°C° 0 mm 1 mps 728 mmHg 93%
    05:00 +26°C° 0 mm 2 mps 729 mmHg 91%
    06:00 +26°C° 0 mm 2 mps 729 mmHg 90%
    07:00 +26°C° 0 mm 2 mps 730 mmHg 89%
    08:00 +29°C° 0 mm 2 mps 730 mmHg 79%
    09:00 +31°C° 0 mm 2 mps 731 mmHg 69%
    10:00 +33°C° 0 mm 1 mps 731 mmHg 59%
    11:00 +34°C° 0.1 mm 1 mps 730 mmHg 55%
    12:00 +36°C° 0.1 mm 1 mps 730 mmHg 50%
    13:00 +37°C° 0.1 mm 1 mps 729 mmHg 45%
    14:00 +35°C° 0.8 mm 1 mps 728 mmHg 52%
    15:00 +35°C° 0.8 mm 2 mps 727 mmHg 59%
    16:00 +32°C° 0.8 mm 2 mps 726 mmHg 66%
    17:00 +30°C° 0.8 mm 2 mps 727 mmHg 75%
    18:00 +28°C° 0.8 mm 1 mps 727 mmHg 83%
    19:00 +26°C° 0.8 mm 1 mps 728 mmHg 92%
    20:00 +26°C° 0.4 mm 1 mps 729 mmHg 93%
    21:00 +26°C° 0.4 mm 1 mps 729 mmHg 93%
    22:00 +26°C° 0.4 mm 1 mps 730 mmHg 94%
    23:00 +26°C° 0.4 mm 2 mps 730 mmHg 94%
    Show more